STARLINK-35423

Last updated on Mon Oct 20 2025 00:02:07 GMT+0000 (Coordinated Universal Time)

1 65873U 25223V 25292.25002315 -.01908386 00000+0 -21810-1 0 9990 2 65873 53.1592 234.9335 0001257 89.0554 40.7919 15.64690407 3736
UTC large
Height (km)
Speed (km/s)
/
Latitude / Longitude
Inclination (degrees)
Orbital Period (minutes)
Azimuth
Elevation
Range (km)
Doppler Factor

Next 0 passes for location: London (51.5072 / 0.1276)

Sorry there are no passes over London.